Weather History for Oak Ridge, TN

Change the Weather History Date:

Thursday, March 20, 2014

  Actual Average (KTYS) Record (KTYS)
Temperature  
Mean Temperature 50 °F 51 °F  
Max Temperature 62 °F 63 °F 85 °F (2012)
Min Temperature 39 °F 40 °F 16 °F (1923)
Degree Days  
Heating Degree Days 14 14  
Month to date heating degree days 327  
Since 1 July heating degree days 3223  
Cooling Degree Days 0 0  
Month to date cooling degree days 0  
Year to date cooling degree days 0  
Moisture  
Dew Point 29 °F    
Average Humidity 50    
Maximum Humidity 93    
Minimum Humidity 17    
Precipitation  
Precipitation 0.00 in 0.14 in 3.55 in (1875)
Month to date precipitation 2.75  
Year to date precipitation 11.33  
Snow  
Snow 0.00 in 0.00 in - ()
Month to date snowfall 0.6  
Since 1 July snowfall 5.7  
Snow Depth -    
Sea Level Pressure  
Sea Level Pressure 30.12 in    
Wind  
Wind Speed 2 mph (West)    
Max Wind Speed 8 mph    
Max Gust Speed -    
Visibility 10 miles    
Events      
T = Trace of Precipitation, MM = Missing Value Source: NWS Daily Summary

Daily Weather History Graph

Daily Weather History Graph

Search for Another Location

Airport:

Trip Planner

Search our weather history database for the weather conditions in past years. The results will help you decide how hot, cold, wet, or windy it might be!

Date:

Astronomy

Mar. 20, 2014 Rise Set
Actual Time 7:40 AM EDT 7:48 PM EDT
Civil Twilight 7:14 AM EDT 8:14 PM EDT
Nautical Twilight 6:45 AM EDT 8:44 PM EDT
Astronomical Twilight 6:14 AM EDT 9:14 PM EDT
Moon 11:59 PM EDT (3/20) 9:53 AM EDT (3/20)
Length of Visible Light 12h 59m
Length of Day
12h 08m
Waning Gibbous, 84% of the Moon is Illuminated
Mar 20
Waning Gibbous
Mar 23
Last Quarter
Mar 30
New
Apr 7
First Quarter
Apr 15
Full

Hourly Weather History & Observations

Time (EDT) Temp. Windchill Dew Point Humidity Pressure Visibility Wind Dir Wind Speed Gust Speed Precip Events Conditions
12:53 AM 50.0 °F - 46.0 °F 86% 30.07 in 10.0 mi Calm Calm - N/A   Partly Cloudy
1:53 AM 50.0 °F - 46.0 °F 86% 30.07 in 10.0 mi Calm Calm - N/A   Clear
2:53 AM 48.0 °F - 45.0 °F 89% 30.09 in 8.0 mi WSW 3.5 mph - N/A   Clear
3:53 AM 45.0 °F 43.5 °F 43.0 °F 93% 30.09 in 5.0 mi SW 3.5 mph - N/A   Partly Cloudy
4:53 AM 43.0 °F - 39.9 °F 89% 30.10 in 6.0 mi Calm Calm - N/A   Clear
5:53 AM 42.1 °F - 37.0 °F 82% 30.12 in 10.0 mi Calm Calm - N/A   Clear
6:53 AM 39.9 °F 35.1 °F 34.0 °F 79% 30.14 in 10.0 mi ENE 6.9 mph - N/A   Clear
7:53 AM 41.0 °F 38.0 °F 28.9 °F 62% 30.16 in 10.0 mi Variable 4.6 mph - N/A   Clear
8:53 AM 45.0 °F - 28.9 °F 53% 30.17 in 10.0 mi Calm Calm - N/A   Clear
9:53 AM 46.9 °F - 28.0 °F 48% 30.18 in 10.0 mi NW 3.5 mph - N/A   Clear
10:53 AM 48.9 °F - 27.0 °F 43% 30.19 in 10.0 mi Calm Calm - N/A   Clear
11:53 AM 51.1 °F - 28.0 °F 41% 30.18 in 10.0 mi Calm Calm - N/A   Clear
12:53 PM 55.0 °F - 25.0 °F 31% 30.16 in 10.0 mi Variable 4.6 mph - N/A   Clear
1:53 PM 57.9 °F - 24.1 °F 27% 30.13 in 10.0 mi Calm Calm - N/A   Clear
2:53 PM 60.1 °F - 21.9 °F 23% 30.10 in 10.0 mi West 5.8 mph - N/A   Clear
3:53 PM 62.1 °F - 16.0 °F 17% 30.09 in 10.0 mi Variable 5.8 mph - N/A   Clear
4:53 PM 61.0 °F - 17.1 °F 18% 30.08 in 10.0 mi SE 4.6 mph - N/A   Clear
5:53 PM 62.1 °F - 16.0 °F 17% 30.07 in 10.0 mi Variable 5.8 mph - N/A   Clear
6:53 PM 60.1 °F - 17.1 °F 19% 30.08 in 10.0 mi West 6.9 mph - N/A   Clear
7:53 PM 57.0 °F - 18.0 °F 22% 30.10 in 10.0 mi West 8.1 mph - N/A   Clear
8:53 PM 54.0 °F - 19.9 °F 26% 30.11 in 10.0 mi Calm Calm - N/A   Clear
9:53 PM 46.9 °F - 25.0 °F 42% 30.13 in 10.0 mi Calm Calm - N/A   Clear
10:53 PM 44.1 °F - 27.0 °F 51% 30.14 in 10.0 mi Calm Calm - N/A   Clear
11:53 PM 41.0 °F - 28.0 °F 60% 30.15 in 10.0 mi Calm Calm - N/A   Clear